STARLINK-36040 (66614 NORAD) Tracking and Keplerian Element Data

This shows tracking and keplerian element data for the satellite.

Feedback or suggestion? Click here.




ElementValue
Catalog66614
NameSTARLINK-36040
Epoch Orbit544
Epoch Day354.25003472
Epoch Year2025
RAAN149.0151
Inclination43
Eccentricity0.0001978
Argument of Perigee274.0388
Mean Anonmoly242.6405
Mean Motion15.40685504
Decay Rate0.00023487
L11 66614U 25270AC 25354.25003472 .00023487 00000+0 56805-3 0 9991
L22 66614 43.0000 149.0151 0001978 274.0388 242.6405 15.40685504 5444



Live tracking and technical data element details for STARLINK-36040 (NORAD 66614). STARLINK-36040 can be tracked NOW for your location showing map with azimuth and elevation plus other details from your city location.







IsCatalogInMostPopularTable: catalog: 66614, numindb: 18
Update: records affected: 1



GetName: 66614 STARLINK-36040

Hit Count: updated at: Mon, 20 Apr 2026 09:23:01 GMT